Tracking 19817 objects as of 17-Aug-2019
HD Live streaming from Space Station
objects crossing your sky now

COSMOS 2251 DEB

Track COSMOS 2251 DEB now!
10-day predictions


NORAD ID: 34042
Int'l Code: 1993-036JD
Perigee: 474.1 km
Apogee: 546.2 km
Inclination: 73.9 °
Period: 94.7 minutes
Semi major axis: 6881 km
RCS: 0.0474 m2 (small)
Launch date: June 16, 1993
Source: Commonwealth of Independent States (former USSR) (CIS)
Launch site: PLESETSK MISSILE AND SPACE COMPLEX (PKMTR)

Note: This is SATELLITE DEBRIS
aabbcc
Your satellite tracking list
Your tracking list is empty




NASA's NSSDC Master Catalog

Two Line Element Set (TLE):
1 34042U 93036JD  19228.92066417 +.00003191 +00000-0 +14131-3 0  9998
2 34042 073.8855 174.3855 0052347 297.4611 062.1268 15.20937259571466
Source of the keplerian elements: AFSPC